User: anonymous   Login
Location: Unspecified
(0.0000°N, 0.0000°E)
Time: 05:34:34
(UTC+00:00)
Language:

Vanguard 2 - Orbit

View from above orbital plane
View from above orbital plane
View from above satellite
View from above satellite

Ground track
Ground track

The orbit data is extracted from the following two-line orbital elements,

1 00011U 59001A   17230.17724548  .00000226  00000-0  11008-3 0  9991
2 00011  32.8701 337.8655 1466892 173.7327 188.3992 11.85425255493934
Epoch (UTC): 18 August 2017 04:15:14
Eccentricity: 0.1466892
inclination: 32.8701°
perigee height: 555 km
apogee height: 2938 km
right ascension of ascending node: 337.8655°
argument of perigee: 173.7327°
revolutions per day: 11.85425255
mean anomaly at epoch: 188.3992°
orbit number at epoch: 49393

The dashed part of the orbit path shows where the satellite is in the earth's shadow,  

DLR